Zurück zum Katalog

UNIFORM 1

AktivMilitärSSO
NORAD 39767·PAYLOAD·🇯🇵 Japan

Gestartet May 24, 2014 von Tanegashima Space Center

Loading…

Nächste Überflüge (nächste 24 Stunden)

TLE

AktuellSource: Space-Track

Epoche: Sep 14, 2026, 05:41 UTC

1 39767U 14029B   26257.23701730  .00001691  00000-0  15530-3 0  9997
2 39767  97.8068 354.3355 0005631  28.6415 331.5115 14.96179770667538

Verfolge UNIFORM 1 in Echtzeit mit AllMySat

Download on the App Store